RH
14 14 14 15 16 17 19 19 19 20 22 22 21 20 19 17 16 14 15 18 18 16 15 15 16 17 20 22 20 19 18 18 18 19 21 22 23 23 23 24 23 24 24 25 27 28 29 29 29 28 29 31 33 35 40 42 42 40 38 36 37 40 43 44 46 49 53 56 59 62 65 65 62 59 57 58 61 62 63 63 62 61 60 60 62 66
13 15 16 18 18 20 21 22 23 23 23 22 20 19 18 16 14 13 15 18 17 17 16 17 19 20 23 24 22 20 19 18 19 20 21 21 22 22 23 24 24 25 26 28 29 30 32 32 32 30 29 30 30 33 38 43 45 45 45 44 41 41 44 47 47 48 50 52 56 60 64 68 70 69 66 65 67 67 68 70 70 69 67 67 67 69
13 15 17 19 20 21 22 24 24 22 21 20 19 18 16 14 13 14 17 18 18 17 17 19 21 21 23 24 21 20 20 21 21 21 22 22 22 23 23 24 25 26 28 29 30 31 32 33 33 33 33 32 32 33 38 42 44 45 48 51 48 46 47 51 53 52 53 52 53 55 58 62 67 72 73 73 73 74 74 74 76 77 76 76 77 75
13 14 18 21 20 18 18 20 20 19 17 16 16 17 15 13 15 16 17 19 19 18 19 22 24 23 24 23 21 22 23 23 24 23 23 24 25 26 26 28 29 30 30 30 30 31 32 33 34 35 35 35 36 38 40 43 44 44 47 51 53 55 57 59 60 57 55 54 54 55 57 60 63 66 70 73 74 76 79 80 81 82 81 81 83 83
14 17 21 21 19 16 15 16 17 16 14 15 15 15 14 14 16 17 16 18 19 21 25 27 24 23 25 25 22 23 24 25 26 25 26 28 29 31 33 34 34 34 34 34 34 35 35 35 36 36 35 36 37 40 41 45 48 47 46 49 53 59 66 70 69 65 60 58 59 61 61 63 66 68 70 70 70 73 77 80 82 83 84 85 85 86
14 19 21 19 18 16 14 14 16 17 14 15 16 15 16 16 17 18 17 19 19 21 28 29 23 20 23 26 25 25 26 27 27 28 28 30 32 34 36 37 38 39 40 40 39 39 39 40 40 40 39 38 39 40 40 44 49 50 48 48 50 55 65 73 74 74 71 69 69 70 70 70 73 76 77 76 73 72 72 73 76 79 83 87 87 86
14 17 19 18 18 17 14 13 16 18 16 16 17 16 18 18 19 19 19 22 21 19 24 27 25 22 21 25 27 28 29 30 29 30 31 32 34 35 38 40 42 43 43 43 42 41 42 42 42 43 43 43 45 45 43 42 46 49 50 49 48 50 57 66 72 76 78 78 77 76 76 76 76 78 81 83 81 77 74 72 72 73 76 80 83 82
14 15 17 18 17 15 13 13 16 18 17 16 17 20 21 20 21 21 22 24 22 21 24 26 28 26 22 25 30 30 31 32 32 33 34 34 36 37 40 44 45 46 45 44 43 43 43 44 44 44 45 45 46 46 44 42 44 48 50 50 50 50 53 59 67 72 76 79 80 79 79 78 77 78 81 85 86 84 82 79 76 74 74 76 79 79
16 15 16 18 17 14 14 15 17 19 19 17 19 22 22 22 23 24 24 23 23 24 24 24 28 27 21 24 32 33 33 35 35 35 35 36 39 42 44 48 50 50 50 50 49 47 46 46 45 44 43 42 42 42 40 40 43 47 49 50 49 48 50 55 63 68 71 74 77 79 80 80 80 79 79 83 87 88 87 85 83 82 80 79 80 81
17 17 19 20 17 15 15 16 18 21 20 20 23 23 22 23 25 26 25 23 25 24 21 22 26 27 25 24 29 35 36 38 39 38 39 42 45 48 51 54 56 57 56 54 50 46 42 41 41 41 41 39 39 38 36 38 43 50 53 53 51 49 48 48 53 59 64 68 72 74 74 75 78 79 78 79 83 86 87 87 85 84 84 84 83 84
18 21 22 22 21 20 18 18 20 23 23 24 25 21 19 22 24 26 24 22 23 22 19 21 24 30 35 30 31 38 41 44 46 44 44 47 50 53 56 59 62 62 57 52 47 41 39 39 39 40 40 36 33 32 33 37 43 49 53 55 54 53 52 49 48 50 54 58 62 66 68 67 71 76 76 75 78 80 83 85 83 81 83 86 88 88
19 20 20 22 23 23 21 21 22 24 26 26 25 21 21 22 23 24 23 22 24 22 21 23 26 34 40 36 37 44 46 47 48 49 51 52 53 56 60 61 61 60 56 52 49 44 42 41 38 36 34 30 29 29 33 40 45 47 48 49 49 49 50 50 48 47 49 51 53 58 64 65 65 68 71 73 75 74 75 79 80 78 79 82 86 90
18 18 17 21 24 23 21 19 21 25 26 26 26 26 26 26 28 28 25 25 27 25 23 24 30 37 36 37 42 44 45 48 49 54 59 60 59 59 60 57 55 55 54 51 45 38 36 35 32 31 32 32 32 35 41 47 51 50 48 48 49 49 50 51 52 51 52 55 57 57 59 61 62 62 63 67 72 73 73 75 75 74 74 76 78 83
19 20 18 20 22 22 20 19 21 23 26 28 29 30 31 34 41 41 34 33 32 29 24 24 34 38 32 36 42 40 43 48 51 56 60 61 60 59 56 55 54 52 46 38 31 29 30 30 29 31 36 41 44 49 56 61 60 57 54 54 55 55 56 59 60 59 56 60 66 66 62 58 57 58 59 61 65 69 70 70 70 68 68 68 68 72
22 22 19 19 21 21 21 23 25 25 27 31 29 30 35 38 46 47 41 41 40 36 31 32 38 37 33 39 42 40 43 48 51 56 61 62 60 57 52 46 42 37 31 28 27 30 33 33 34 37 44 52 58 65 73 74 71 67 65 64 65 65 66 67 67 65 61 60 63 65 64 59 55 54 56 60 62 64 61 59 60 62 63 62 60 61
24 22 20 22 23 22 23 25 28 27 28 31 30 33 36 36 42 46 41 42 46 45 43 40 37 33 37 45 45 45 49 52 56 58 61 61 58 55 45 30 25 27 26 27 30 35 38 39 43 52 58 61 68 76 81 80 78 75 73 74 76 76 76 74 73 71 68 65 63 62 62 59 55 52 53 54 57 60 58 52 52 55 58 59 58 57
25 23 22 24 24 24 25 26 29 29 27 29 33 36 36 36 43 48 45 42 46 50 45 39 35 33 42 52 53 55 58 57 57 57 58 59 56 48 34 23 25 28 28 30 33 39 44 47 55 66 67 66 74 84 83 79 79 78 80 83 85 85 85 85 83 80 76 73 70 68 66 63 59 56 54 52 51 54 56 54 52 53 54 56 59 59
28 27 24 25 24 24 26 28 29 31 30 31 35 37 36 39 46 51 54 50 49 53 47 39 40 41 47 57 60 61 64 63 63 63 62 55 45 35 26 27 30 30 31 35 39 45 52 57 66 74 72 72 82 89 82 78 79 82 86 89 90 90 90 91 91 87 84 80 77 75 74 71 68 64 61 57 52 52 54 54 52 53 55 58 60 61
30 30 26 25 26 25 25 27 29 31 33 34 36 36 38 45 50 53 59 58 58 63 57 48 45 46 53 61 62 63 68 69 67 65 60 44 30 28 30 34 34 32 37 42 46 54 63 69 75 78 78 81 88 90 83 81 83 85 89 91 93 94 93 94 94 91 89 86 83 81 79 77 75 72 68 63 56 52 51 51 51 51 53 55 56 56
32 31 28 26 26 26 25 26 28 31 35 36 37 39 43 49 52 54 57 57 61 66 66 62 53 49 58 61 60 66 67 62 57 57 55 41 27 29 34 36 35 36 43 51 60 71 77 79 79 80 84 90 93 91 86 86 87 87 90 92 94 95 94 95 93 91 90 87 84 82 80 80 78 74 71 67 61 56 54 53 53 53 53 53 53 52
31 31 29 25 24 26 26 28 30 32 36 37 38 45 51 53 55 59 60 59 64 69 73 79 69 54 58 62 63 67 60 52 52 53 51 40 28 29 33 34 36 40 48 60 75 85 86 85 81 80 88 94 95 91 89 90 91 90 91 92 93 95 95 95 93 91 89 87 85 83 82 82 79 75 72 69 65 60 58 57 57 56 56 55 54 54
33 32 32 28 25 25 27 31 34 35 38 39 44 52 58 61 62 66 66 61 68 75 77 86 79 58 57 65 65 59 47 46 53 51 43 33 27 28 30 33 40 46 54 68 82 89 89 87 84 84 90 93 91 89 90 93 95 93 92 91 92 94 96 97 96 92 90 88 87 85 84 82 80 76 73 70 67 64 62 61 60 59 58 56 54 54
36 34 34 31 28 27 30 34 34 35 37 38 44 50 55 62 66 71 76 70 72 77 73 76 73 55 52 58 56 48 40 44 52 47 37 31 28 28 30 36 45 52 60 73 83 88 87 88 89 90 91 89 87 87 89 93 96 94 91 91 92 94 95 97 97 93 92 91 90 89 87 85 82 79 76 74 72 69 69 69 68 65 64 61 58 56
38 36 35 31 25 25 31 35 34 36 37 38 41 45 51 61 65 67 71 72 77 78 71 75 74 53 42 48 49 45 42 46 49 42 33 30 29 30 33 41 50 60 68 77 83 86 86 89 92 92 90 87 86 88 90 92 93 91 89 90 92 92 93 95 94 92 91 92 93 91 90 87 85 83 82 80 79 78 77 78 78 75 73 70 67 64
40 38 39 36 30 29 31 34 36 39 41 42 46 49 54 62 65 62 62 69 76 71 68 79 77 52 40 47 47 45 45 49 51 43 34 31 29 31 37 45 54 66 74 79 83 85 86 89 93 92 89 89 90 91 92 92 92 91 90 90 89 89 90 92 92 90 89 90 93 93 92 91 90 89 88 86 84 84 84 83 83 82 78 74 70 67
43 41 41 41 41 42 40 39 43 45 45 47 51 57 60 64 66 66 68 76 77 68 66 77 74 56 46 45 44 45 49 54 55 44 33 29 31 39 47 52 60 70 77 81 84 86 88 91 92 91 91 93 95 95 95 94 93 92 92 91 89 87 87 88 90 90 88 90 93 95 95 94 94 94 94 92 88 86 86 86 85 83 81 77 72 68
42 44 42 40 42 44 43 43 45 47 49 50 53 58 60 62 66 70 77 79 75 72 72 71 71 67 54 44 47 50 51 57 58 47 36 34 40 50 56 59 65 73 79 85 87 90 93 94 93 93 94 95 95 96 98 97 95 93 92 90 89 87 87 88 91 91 92 93 93 93 92 92 94 95 96 95 91 86 84 86 87 84 82 79 75 72
38 42 41 40 42 42 42 44 45 47 49 48 51 57 57 58 64 73 80 79 77 82 76 60 60 67 56 46 51 54 56 62 57 44 40 44 47 54 61 66 71 75 81 87 89 93 95 94 94 96 95 94 94 96 97 95 93 93 93 94 95 93 91 89 87 86 87 90 92 91 90 91 91 92 92 92 89 85 82 83 86 86 83 80 77 75
38 39 40 44 46 43 43 45 44 43 45 47 51 56 56 57 65 73 77 76 76 81 73 56 54 60 53 47 52 57 62 61 48 39 43 46 45 50 59 67 74 80 85 89 90 93 95 94 95 97 97 97 97 98 97 95 94 95 94 96 99 98 94 89 85 84 84 86 88 88 89 89 88 87 86 84 83 84 83 82 84 86 86 84 79 74
39 36 40 47 47 44 42 43 42 42 44 48 53 57 54 56 66 73 71 66 63 61 57 53 54 54 50 51 58 61 57 48 42 44 48 45 43 48 56 66 77 85 88 90 92 93 95 95 95 96 97 98 99 99 99 99 99 99 97 96 96 97 95 92 89 88 86 84 85 85 84 83 82 83 84 84 83 85 86 85 85 87 87 85 79 73
39 36 43 49 48 44 42 40 41 43 46 51 57 57 52 52 61 67 64 58 54 51 48 52 57 57 54 55 57 57 50 45 45 48 47 45 46 51 60 70 81 85 86 88 89 91 94 95 94 94 97 99 100 100 101 101 100 98 96 94 93 94 96 95 92 90 88 86 85 85 82 79 78 81 84 86 87 88 88 88 88 88 88 86 81 74
43 40 43 48 50 45 40 39 40 43 50 59 61 55 51 54 57 58 56 55 58 59 57 57 60 59 55 52 49 46 45 45 45 46 47 47 46 53 65 74 78 81 83 82 83 85 89 91 92 92 96 100 101 101 101 100 97 96 95 92 92 95 96 95 93 89 89 88 88 87 85 83 83 84 85 88 90 89 90 92 91 89 90 88 81 73
49 46 44 50 53 44 39 41 42 45 52 58 59 55 56 59 55 49 49 50 53 59 61 61 60 56 54 53 49 45 46 47 49 52 56 57 55 58 68 76 79 81 81 80 82 84 85 88 91 93 95 98 100 100 99 97 95 95 95 94 94 95 95 93 91 89 89 90 90 88 86 85 85 85 87 90 92 90 91 95 93 91 92 89 80 72
50 50 50 56 56 46 41 41 42 47 50 51 56 60 62 61 54 47 47 47 47 50 53 56 56 57 58 56 51 49 50 56 59 57 60 70 75 75 76 78 80 82 83 83 84 86 87 89 91 94 97 98 99 97 95 96 96 95 94 94 94 94 94 93 91 91 89 89 89 87 86 86 86 86 88 91 92 91 94 96 93 93 94 87 76 68
46 50 54 58 58 50 45 46 49 52 52 54 62 66 62 56 51 46 44 45 47 50 54 56 59 60 56 49 44 47 51 56 58 58 62 75 84 88 87 85 82 81 83 85 86 88 91 93 93 95 97 98 97 93 91 93 93 91 90 91 92 95 97 95 92 90 89 89 89 89 90 89 88 88 90 93 94 94 95 95 94 95 92 82 72 65
47 52 54 55 54 50 50 57 59 53 50 58 66 64 58 54 53 52 51 48 50 56 59 60 58 54 46 38 40 50 56 55 52 57 70 80 85 89 92 90 88 85 85 87 90 91 93 95 96 97 96 95 94 93 92 92 89 85 85 89 92 96 96 94 91 91 90 90 90 90 90 89 88 89 92 97 98 95 93 93 95 94 86 73 67 65
52 53 52 51 52 53 58 63 60 52 52 60 64 60 58 58 56 60 62 56 52 57 60 57 52 45 40 40 46 56 60 55 48 52 69 82 86 90 92 93 94 92 90 92 96 97 98 98 98 98 96 94 93 94 95 94 89 85 86 88 91 95 95 93 93 94 94 93 90 89 90 89 89 93 98 99 96 93 94 97 96 87 75 67 67 69
54 53 53 52 51 54 61 64 62 58 57 60 61 57 57 57 54 59 65 59 53 55 56 53 48 44 44 48 55 60 62 60 52 49 63 79 85 87 89 90 92 94 94 95 96 97 99 99 98 98 95 93 95 97 95 93 90 89 88 88 90 94 94 94 95 97 97 96 93 91 92 93 95 98 99 98 96 97 100 98 89 77 70 69 69 70
53 55 54 52 50 55 61 63 65 64 59 60 62 56 53 54 54 59 66 61 54 53 53 50 48 48 51 55 58 62 68 70 60 50 59 74 79 82 86 86 87 91 93 96 98 98 98 96 94 95 95 95 97 97 94 93 93 93 91 88 89 92 93 95 97 98 97 97 96 95 96 98 99 98 98 98 100 100 97 88 78 72 72 72 71 73
55 56 54 52 53 58 62 62 63 63 60 60 59 55 53 52 53 65 75 70 59 53 51 53 54 52 55 58 59 62 70 74 69 61 64 72 75 80 85 86 86 88 89 94 99 98 96 94 92 93 95 96 96 95 95 95 94 93 92 90 88 89 93 97 98 97 97 97 96 97 99 100 99 98 99 99 96 91 84 78 75 73 73 72 73 78
59 58 54 54 56 59 62 62 60 60 60 57 55 56 58 55 59 76 85 76 65 56 53 59 62 58 57 60 62 64 67 70 73 75 77 78 79 81 85 87 89 92 93 95 97 94 90 92 95 96 96 95 95 97 98 96 94 93 93 91 88 89 95 99 98 97 97 96 96 98 101 100 100 101 98 89 81 78 77 75 73 72 71 72 75 81
62 60 56 58 60 59 61 63 62 61 59 56 56 57 62 69 79 84 78 67 62 61 60 64 64 60 60 61 62 65 66 65 71 78 83 87 87 86 86 87 89 94 98 98 96 93 91 92 95 96 95 94 95 96 95 95 96 96 94 92 90 91 96 99 97 96 95 95 96 99 100 102 101 96 85 76 74 77 77 72 69 70 73 75 80 85
64 62 60 63 64 63 64 67 69 66 60 60 65 65 66 76 82 78 71 63 57 57 60 61 60 58 58 59 59 62 64 64 66 74 83 90 92 91 90 91 93 96 98 96 93 94 94 93 93 93 93 93 94 93 92 93 96 97 96 93 91 92 97 99 96 92 93 95 96 98 101 102 94 81 72 71 75 77 74 70 71 76 79 81 85 88
64 63 63 65 68 71 71 69 68 66 61 63 70 67 63 67 70 68 68 63 51 49 52 54 54 53 53 56 58 58 60 62 65 72 80 86 91 93 93 95 97 98 98 95 94 94 94 93 92 92 91 92 92 91 91 92 94 97 97 94 92 95 100 99 92 90 94 95 94 97 101 94 79 70 71 75 77 78 77 76 79 82 84 85 87 87
62 64 64 65 66 69 70 66 64 63 61 62 65 62 58 62 63 62 61 55 47 45 45 48 52 50 48 53 58 56 57 61 65 73 82 87 90 93 94 96 99 100 98 96 95 95 96 94 92 91 91 93 93 93 93 93 95 98 97 93 93 97 101 96 90 91 95 94 94 98 95 81 69 69 74 78 80 83 83 84 87 89 88 88 88 89
62 65 64 64 63 62 63 63 62 62 62 62 62 61 59 60 60 57 54 52 48 45 44 46 49 47 46 53 59 58 59 62 67 75 84 89 92 93 95 97 99 99 97 95 96 99 99 96 94 94 95 94 94 95 95 95 97 99 96 94 95 98 99 94 90 93 96 94 95 94 83 69 67 71 74 78 83 86 86 89 93 94 94 94 94 95
63 64 62 63 64 63 61 59 58 60 63 64 62 58 56 56 56 55 54 52 49 46 45 45 45 43 45 52 58 61 62 65 71 77 84 89 92 93 94 96 97 98 97 97 100 103 101 98 97 97 98 96 94 95 95 96 99 100 97 95 97 98 97 93 92 94 95 94 94 86 72 65 68 71 75 80 84 86 89 94 97 97 98 99 99 99
63 64 65 64 65 66 62 57 56 58 62 62 59 55 55 56 55 53 52 51 49 47 46 45 45 44 45 49 55 61 64 68 75 81 85 90 92 93 93 92 94 96 97 99 102 103 101 100 99 99 101 100 97 96 96 97 100 101 98 96 98 99 97 95 95 94 95 95 90 77 67 67 71 73 79 83 85 88 93 97 99 100 101 101 100 100
64 65 67 67 66 65 61 58 57 59 60 59 58 57 58 58 56 53 51 49 47 46 46 45 44 44 46 49 54 59 64 70 78 84 89 92 93 94 93 92 92 93 94 98 101 101 100 100 99 100 102 102 100 99 98 98 100 101 98 97 99 99 98 97 95 94 95 96 86 71 66 72 75 78 83 84 86 93 96 95 95 98 99 100 100 100
65 65 67 69 70 69 66 63 65 67 66 64 62 61 62 60 57 54 51 49 46 45 46 46 44 42 44 47 52 58 65 73 81 88 93 94 94 94 92 89 90 92 95 98 99 99 99 100 100 102 103 102 102 100 97 98 101 100 98 97 98 99 98 98 96 94 96 96 83 67 66 74 78 81 83 83 87 94 94 91 93 94 95 98 100 99
67 68 70 70 73 75 73 70 72 73 71 68 66 65 65 62 59 56 54 51 48 46 46 46 45 43 42 43 47 56 67 76 84 90 94 95 95 95 93 91 92 95 97 97 96 97 100 101 101 102 102 102 101 99 97 99 101 99 97 97 98 98 98 99 97 95 96 96 82 65 65 73 77 81 84 84 86 89 88 86 89 92 93 96 98 96